Showing default

NUSAT-50 (NANCY ROMAN), 60493

Orbit data source: Space-Track

NUSAT-50 (NANCY ROMAN), 60493 is a payload satellite owned by URUGUS S.A. (AR) in SSO that was launched on Fri, 16 Aug 2024 UTC via an FALCON 9 launch vehicle from the Air Force Western Test Range (AFWTR). Payload-class satellites include a variety of spacecraft equipped with specific instruments for various scientific and technological missions. These include communications satellites like Starlink; space stations such as the ISS; scientific satellites like the Hubble; Earth observation satellites from companies like Planet Labs, Umbra, and HawkEye 360; GPS; miniature CubeSats for education and research; and military/defense satellites.

Loading next visibility...
Identifier
60493, 2024-149AB
Orbit
SSO
Country
Flag of ARAR / ARGN
Related business
Manufacturer
URUGUS S.A.
Mission
Operational Commercial Imaging
Bus & Motor
NEWSAT V, Unknown motor
Mass
41.5 kg wet, 38.5 kg dry
Launch date (UTC)
2024-08-16 (2 years ago)
Launch vehicle
FALCON 9
Launch site
Air Force Western Test Range (AFWTR)
Object type
Payload
Rocket body
Debris
Shape & HBR
Box, 1.0 m
Radar Cross Section
0.542 m², Medium (>0.1 m² and < 1m²)

Expand to show TLE details & history
Last TLE update: 14 hours ago

TLE from 14 hours ago
0 NUSAT-50 (NANCY ROMAN)
1 60493U 24149AB  26256.17481689  .00006419  00000-0  22043-3 0  9991
2 60493  97.3738 336.8584 0001957 215.1448 144.9665 15.30474064115584
Epoch: 2026-09-13T04:11Z
TLE epoch observation values (Epoch: 2026-09-13T04:11:44.179Z)
Latitude
0.00008°
Longitude
-78.24894°
Altitude
478.601 km
Speed
7.626 km/s
True Right ascension
22h 27m 26s
True Declination
0° 00' 00"
Sunlit
Object was in full shadow at epoch
Visualization orbit readout
Latitude
Unknown
Longitude
Unknown
Altitude
Unknown
Speed
Unknown
Apparent Right ascension
Unknown
Apparent Declination
Unknown
Sunlit
N/A
Visualization observer readout
Local Sidereal Time
10:52:26
Azimuth
Unknown
Elevation
Unknown
Doppler factor
Unknown
Orbital elements
Apogee altitude
472.688 km
Perigee altitude
470.007 km
Semi-major axis
6,849.484 km
Eccentricity
0.0002
Inclination
97.3738°
RAAN
336.8584°
Arg. of periapsis
215.1448°
True anomaly
144.97937°
Mean anomaly
144.9665°
Eccentric anomaly
144.97294°
Mean motion
3.82874 °/min
Orbital period
94.03 mins
BSTAR
0.00022043
Loading maneuver chart data...
Computing Atmospheric mass density...
Loading historical data...
Loading historical data...
Loading historical data...
Loading historical data...
Loading historical data...
Loading historical data...
Loading historical data...

Documentation

Showing up to 5 results
|